Regional Weather Roundup
Issued by NWS

Home | Current Version | Previous Version | Text Only | Print | Product List | Glossary Off
Versions: 1 2 3 4 5 6 7 8 9 10 11 12 13 14 15 16 17 18 19 20 21 22 23 24 25 26 27 28 29 30 31 32 33 34 35 36 37 38 39 40 41 42 43 44 45 46 47 48 49 50

338
ASUS43 KLSX 200057
RWRMO

WEATHER SUMMARY FOR MISSOURI
NATIONAL WEATHER SERVICE SPRINGFIELD MO
700 PM CST FRI JAN 19 2018

NOTE: "FAIR" INDICATES FEW OR NO CLOUDS BELOW 12,000 FEET WITH NO
       SIGNIFICANT WEATHER AND/OR OBSTRUCTIONS TO VISIBILITY.
       CURRENT SKY AND/OR WEATHER CONDITIONS ARE NOT AVAILABLE FOR
       CHILLICOTHE AND FARMINGTON.

MOZ001>031-035>038-043-044-053-054-200200-
...NORTHERN AND WESTERN MISSOURI...

CITY           SKY/WX    TMP DP  RH WIND       PRES   REMARKS
KANSAS CTY INT CLOUDY    44  27  51 S23G29    29.79S
LEE`S SUMMIT   CLOUDY    43  28  55 S17G25    29.83R
ST JOSEPH      CLOUDY    41  30  65 S12       29.78R
CHILLICOTHE      N/A     43  28  55 S10       29.81S

$$
MOZ066>068-077>081-088>096-101>105-200200-
...SOUTHWEST MISSOURI...

CITY           SKY/WX    TMP DP  RH WIND       PRES   REMARKS
SPRINGFIELD    CLOUDY    44  29  55 S12       29.92S
JOPLIN         CLOUDY    46  31  55 S15       29.91S
BRANSON        CLOUDY    45  28  53 S8        29.97F

$$
MOZ032>034-039>042-045>050-055>058-069>072-200200-
...CENTRAL MISSOURI...

CITY           SKY/WX    TMP DP  RH WIND       PRES   REMARKS
COLUMBIA       NOT AVBL
JEFFERSON CITY CLOUDY    48  25  40 SE8       29.91R
ROLLA          CLOUDY    43  25  49 S12       29.93S
SEDALIA        CLOUDY    48  28  46 S20       29.87F
WARRENSBURG    CLOUDY    43  28  56 S8        29.86R

$$
MOZ051-052-059>065-200200-
...EAST CENTRAL MISSOURI...

CITY           SKY/WX    TMP DP  RH WIND       PRES   REMARKS
ST LOUIS INTL  CLOUDY    50  23  34 S9        29.92S

$$
MOZ072>076-082>087-097>100-106>115-200200-
...SOUTH CENTRAL AND SOUTHEAST MISSOURI...

CITY           SKY/WX    TMP DP  RH WIND       PRES   REMARKS
CAPE GIRARDEAU FAIR      35  23  61 S16       30.08S WCI  25
POPLAR BLUFF   FAIR      34  27  75 S7        30.09R WCI  28
WEST PLAINS    CLOUDY    42  29  59 S9        30.00R

$$



USA.gov is the U.S. government's official web portal to all federal, state and local government web resources and services.